Weather History for KCHA - November, 2011

Change the Weather History Date:

Saturday, November 5, 2011

  Actual Average Record
Temperature  
Mean Temperature 52 °F 55 °F  
Max Temperature 65 °F 67 °F 80 °F (1948)
Min Temperature 38 °F 43 °F 22 °F (1952)
Degree Days  
Heating Degree Days 13 10  
Month to date heating degree days 71 48  
Since 1 July heating degree days 252 220  
Cooling Degree Days 0 0  
Month to date cooling degree days 0 0  
Year to date cooling degree days 2113 1737  
Growing Degree Days 2 (Base 50)    
Moisture  
Dew Point 40 °F    
Average Humidity 68    
Maximum Humidity 92    
Minimum Humidity 44    
Precipitation  
Precipitation 0.00 in 0.14 in 1.60 in (1981)
Month to date precipitation 0.52 0.69  
Year to date precipitation 50.64 43.27  
Snow  
Snow 0.00 in 0.00 in - ()
Month to date snowfall 0.0 0.0  
Since 1 July snowfall 0.0 0.0  
Since 1 September snowfall 0.0 0.0  
Snow Depth 0.00 in    
Sea Level Pressure  
Sea Level Pressure 30.24 in    
Wind  
Wind Speed 3 mph (SSE)    
Max Wind Speed 10 mph    
Max Gust Speed 14 mph    
Visibility 9 miles    
Events Fog    
T = Trace of Precipitation, MM = Missing Value Source: NWS Daily Summary

Daily Weather History Graph

Daily Weather History Graph

Search for Another Location

Airport or City:

Trip Planner

Search our weather history database for the weather conditions in past years. The results will help you decide how hot, cold, wet, or windy it might be!

Date:

Astronomy

Nov. 05, 2011 Rise Set
Actual Time 8:05 AM EDT 6:42 PM EDT
Civil Twilight 7:39 AM EDT 7:09 PM EDT
Nautical Twilight 7:08 AM EDT 7:39 PM EDT
Astronomical Twilight 6:39 AM EDT 8:09 PM EDT
Moon 3:51 PM EDT (11/5) 3:24 AM EDT (11/5)
Length of Visible Light 11h 30m
Length of Day
10h 37m
Waxing Gibbous, 78% of the Moon is Illuminated
Nov 5
Waxing Gibbous
Nov 10
Full
Nov 18
Last Quarter
Nov 25
New
Dec 2
First Quarter

Hourly Weather History & Observations

Time (EDT) Temp. Dew Point Humidity Pressure Visibility Wind Dir Wind Speed Gust Speed Precip Events Conditions
12:53 AM 48.0 °F 43.0 °F 83% 30.18 in 10.0 mi Calm Calm - N/A   Clear
1:53 AM 46.9 °F 42.1 °F 83% 30.16 in 10.0 mi NNE 5.8 mph - N/A   Clear
2:53 AM 46.9 °F 42.1 °F 83% 30.17 in 10.0 mi Calm Calm - N/A   Clear
3:53 AM 43.0 °F 39.9 °F 89% 30.18 in 10.0 mi Calm Calm - N/A   Clear
4:53 AM 41.0 °F 37.4 °F 87% 30.18 in 10.0 mi Calm Calm - N/A   Clear
5:53 AM 41.0 °F 37.0 °F 86% 30.20 in 8.0 mi Calm Calm - N/A   Clear
6:45 AM 39.2 °F 37.4 °F 93% 30.23 in 8.0 mi Calm Calm - N/A   Partly Cloudy
6:53 AM 39.9 °F 36.0 °F 86% 30.23 in 8.0 mi Calm Calm - N/A   Partly Cloudy
7:53 AM 39.2 °F 35.6 °F 87% 30.25 in 8.0 mi Calm Calm - N/A Fog Shallow Fog
8:53 AM 39.0 °F 37.0 °F 93% 30.28 in 8.0 mi Calm Calm - N/A   Clear
9:53 AM 44.1 °F 42.1 °F 93% 30.31 in 8.0 mi Calm Calm - N/A   Partly Cloudy
10:53 AM 51.8 °F 44.6 °F 76% 30.31 in 8.0 mi Calm Calm - N/A   Clear
11:53 AM 55.9 °F 42.1 °F 60% 30.31 in 10.0 mi Calm Calm - N/A   Partly Cloudy
12:53 PM 57.9 °F 43.0 °F 58% 30.29 in 10.0 mi Calm Calm - N/A   Clear
1:53 PM 60.1 °F 43.0 °F 53% 30.26 in 10.0 mi Calm Calm - N/A   Clear
2:53 PM 62.1 °F 43.0 °F 50% 30.24 in 10.0 mi Variable 3.5 mph - N/A   Clear
3:53 PM 64.4 °F 44.6 °F 49% 30.22 in 10.0 mi Calm Calm - N/A   Clear
4:53 PM 64.0 °F 42.1 °F 45% 30.21 in 10.0 mi ESE 5.8 mph - N/A   Clear
5:53 PM 63.0 °F 41.0 °F 45% 30.20 in 10.0 mi Calm Calm - N/A   Clear
6:53 PM 59.0 °F 44.1 °F 58% 30.21 in 10.0 mi SE 4.6 mph - N/A   Scattered Clouds
7:53 PM 57.0 °F 42.1 °F 57% 30.23 in 10.0 mi SE 5.8 mph - N/A   Scattered Clouds
8:53 PM 55.9 °F 39.9 °F 55% 30.25 in 10.0 mi South 6.9 mph - N/A   Scattered Clouds
9:53 PM 50.0 °F 41.0 °F 71% 30.27 in 10.0 mi SSW 4.6 mph - N/A   Partly Cloudy
10:53 PM 51.1 °F 32.0 °F 48% 30.28 in 10.0 mi South 5.8 mph - N/A   Partly Cloudy
11:53 PM 48.9 °F 30.0 °F 48% 30.30 in 10.0 mi South 8.1 mph - N/A   Partly Cloudy